Weather History for KLNP - September, 2013

Change the Weather History Date:

Monday, September 30, 2013

  Actual Average Record
Temperature  
Mean Temperature 61 °F -  
Max Temperature 69 °F 67 °F 78 °F (1998)
Min Temperature 53 °F 48 °F 33 °F (2003)
Degree Days  
Heating Degree Days 4    
Growing Degree Days 11 (Base 50)    
Moisture  
Dew Point 58 °F    
Average Humidity 91    
Maximum Humidity 100    
Minimum Humidity 64    
Precipitation  
Precipitation 0.00 in - - ()
Sea Level Pressure  
Sea Level Pressure 30.12 in    
Wind  
Wind Speed 1 mph (SSW)    
Max Wind Speed 7 mph    
Max Gust Speed -    
Visibility 8 miles    
Events Fog    
Averages and records for this station are not official NWS values.
T = Trace of Precipitation, MM = Missing Value Source: NWS Daily Summary

Daily Weather History Graph

Daily Weather History Graph

Search for Another Location

Airport or City:

Trip Planner

Search our weather history database for the weather conditions in past years. The results will help you decide how hot, cold, wet, or windy it might be!

Date:

Astronomy

Sep. 30, 2013 Rise Set
Actual Time 7:24 AM EDT 7:14 PM EDT
Civil Twilight 6:58 AM EDT 7:40 PM EDT
Nautical Twilight 6:28 AM EDT 8:10 PM EDT
Astronomical Twilight 5:58 AM EDT 8:40 PM EDT
Moon 3:06 AM EDT (9/30) 4:39 PM EDT (9/30)
Length of Visible Light 12h 41m
Length of Day
11h 49m
Waning Crescent, 19% of the Moon is Illuminated
Sep 30
Waning Crescent
Oct 4
New
Oct 11
First Quarter
Oct 18
Full
Oct 26
Last Quarter

Hourly Weather History & Observations

Time (EDT) Temp. Dew Point Humidity Pressure Visibility Wind Dir Wind Speed Gust Speed Precip Events Conditions
12:15 AM 57.2 °F 57.2 °F 100% 30.12 in 10.0 mi Calm Calm - N/A   Mostly Cloudy
12:35 AM 59.0 °F 59.0 °F 100% 30.11 in 10.0 mi Calm Calm - N/A   Mostly Cloudy
12:55 AM 59.0 °F 59.0 °F 100% 30.11 in 10.0 mi Calm Calm - N/A   Scattered Clouds
1:15 AM 57.2 °F 57.2 °F 100% 30.11 in 10.0 mi Calm Calm - N/A   Clear
1:35 AM 55.4 °F 55.4 °F 100% 30.11 in 10.0 mi Calm Calm - N/A   Clear
1:55 AM 57.2 °F 57.2 °F 100% 30.11 in 10.0 mi Calm Calm - N/A   Clear
2:15 AM 53.6 °F 53.6 °F 100% 30.11 in 2.0 mi Calm Calm - N/A   Clear
2:35 AM 55.4 °F 55.4 °F 100% 30.11 in 10.0 mi Calm Calm - N/A   Clear
2:55 AM 57.2 °F 57.2 °F 100% 30.10 in 10.0 mi Calm Calm - N/A   Clear
3:15 AM 57.2 °F 57.2 °F 100% 30.10 in 10.0 mi Calm Calm - N/A   Clear
3:35 AM 55.4 °F 55.4 °F 100% 30.09 in 5.0 mi Calm Calm - N/A   Clear
3:55 AM 55.4 °F 55.4 °F 100% 30.09 in 0.8 mi Calm Calm - N/A   Scattered Clouds
4:15 AM 53.6 °F 53.6 °F 100% 30.10 in 0.5 mi Calm Calm - N/A Fog Fog
4:35 AM 55.4 °F 55.4 °F 100% 30.10 in 7.0 mi Calm Calm - N/A   Overcast
4:55 AM 55.4 °F 55.4 °F 100% 30.11 in 1.5 mi Calm Calm - N/A   Overcast
5:15 AM 55.4 °F 55.4 °F 100% 30.11 in 0.8 mi Calm Calm - N/A   Mostly Cloudy
5:35 AM 53.6 °F 53.6 °F 100% 30.11 in 0.2 mi SSW 3.5 mph - N/A Fog Fog
5:55 AM 53.6 °F 53.6 °F 100% 30.12 in 0.2 mi SSW 3.5 mph - N/A Fog Fog
6:15 AM 53.6 °F 53.6 °F 100% 30.12 in 0.8 mi SSW 3.5 mph - N/A   Mostly Cloudy
6:35 AM 53.6 °F 53.6 °F 100% 30.12 in 1.2 mi SW 3.5 mph - N/A   Mist
6:55 AM 53.6 °F 53.6 °F 100% 30.12 in 2.0 mi Calm Calm - N/A   Mostly Cloudy
7:15 AM 53.6 °F 53.6 °F 100% 30.13 in 0.8 mi Calm Calm - N/A   Mist
7:35 AM 55.4 °F 55.4 °F 100% 30.14 in 10.0 mi SE 3.5 mph - N/A   Mostly Cloudy
7:55 AM 57.2 °F 57.2 °F 100% 30.14 in 7.0 mi Calm Calm - N/A   Overcast
8:15 AM 57.2 °F 57.2 °F 100% 30.14 in 5.0 mi Calm Calm - N/A   Mostly Cloudy
8:35 AM 57.2 °F 57.2 °F 100% 30.14 in 5.0 mi Calm Calm - N/A   Scattered Clouds
8:55 AM 59.0 °F 59.0 °F 100% 30.14 in 5.0 mi Calm Calm - N/A   Clear
9:15 AM 60.8 °F 60.8 °F 100% 30.14 in 10.0 mi Calm Calm - N/A   Clear
9:35 AM 60.8 °F 60.8 °F 100% 30.14 in 10.0 mi WSW 3.5 mph - N/A   Scattered Clouds
9:55 AM 60.8 °F 60.8 °F 100% 30.14 in 10.0 mi SSW 4.6 mph - N/A   Scattered Clouds
10:15 AM 62.6 °F 62.6 °F 100% 30.14 in 10.0 mi SSW 4.6 mph - N/A   Scattered Clouds
10:35 AM 64.4 °F 62.6 °F 94% 30.15 in 10.0 mi SSW 5.8 mph - N/A   Mostly Cloudy
10:55 AM 64.4 °F 57.2 °F 77% 30.15 in 10.0 mi SSW 6.9 mph - N/A   Scattered Clouds
11:15 AM 66.2 °F 59.0 °F 78% 30.14 in 10.0 mi SSW 4.6 mph - N/A   Scattered Clouds
11:35 AM 68.0 °F 59.0 °F 73% 30.14 in 10.0 mi SSW 4.6 mph - N/A   Scattered Clouds
11:55 AM 66.2 °F 60.8 °F 83% 30.14 in 10.0 mi South 4.6 mph - N/A   Mostly Cloudy
12:15 PM 64.4 °F 59.0 °F 83% 30.13 in 10.0 mi Calm Calm - N/A   Mostly Cloudy
12:35 PM 68.0 °F 60.8 °F 78% 30.12 in 10.0 mi ESE 6.9 mph - N/A   Scattered Clouds
12:55 PM 69.8 °F 60.8 °F 73% 30.12 in 10.0 mi SE 4.6 mph - N/A   Clear
1:15 PM 69.8 °F 60.8 °F 73% 30.12 in 10.0 mi SE 4.6 mph - N/A   Clear
1:35 PM 64.4 °F 59.0 °F 83% 30.12 in 10.0 mi SSE 3.5 mph - N/A   Scattered Clouds
1:55 PM 64.4 °F 59.0 °F 83% 30.11 in 10.0 mi SE 3.5 mph - N/A   Scattered Clouds
2:15 PM 66.2 °F 57.2 °F 73% 30.10 in 10.0 mi SSW 4.6 mph - N/A   Mostly Cloudy
2:35 PM 66.2 °F 59.0 °F 78% 30.10 in 10.0 mi SSW 6.9 mph - N/A   Overcast
2:55 PM 68.0 °F 59.0 °F 73% 30.10 in 10.0 mi SSW 5.8 mph - N/A   Overcast
3:15 PM 68.0 °F 59.0 °F 73% 30.09 in 10.0 mi South 4.6 mph - N/A   Overcast
3:35 PM 68.0 °F 55.4 °F 64% 30.09 in 10.0 mi SSW 4.6 mph - N/A   Overcast
3:55 PM 68.0 °F 57.2 °F 68% 30.09 in 10.0 mi SSW 5.8 mph - N/A   Overcast
4:15 PM 68.0 °F 57.2 °F 68% 30.09 in 10.0 mi South 4.6 mph - N/A   Overcast
4:35 PM 68.0 °F 59.0 °F 73% 30.09 in 10.0 mi Calm Calm - N/A   Overcast
4:55 PM 68.0 °F 59.0 °F 73% 30.09 in 10.0 mi Calm Calm - N/A   Overcast
5:15 PM 66.2 °F 59.0 °F 78% 30.08 in 10.0 mi NNW 3.5 mph - N/A   Overcast
5:35 PM 66.2 °F 59.0 °F 78% 30.09 in 10.0 mi Calm Calm - N/A   Overcast
5:55 PM 66.2 °F 59.0 °F 78% 30.09 in 10.0 mi Calm Calm - N/A   Overcast
6:15 PM 64.4 °F 59.0 °F 83% 30.09 in 10.0 mi Calm Calm - N/A   Overcast
6:35 PM 64.4 °F 59.0 °F 83% 30.10 in 10.0 mi Calm Calm - N/A   Overcast
6:55 PM 64.4 °F 59.0 °F 83% 30.10 in 10.0 mi Calm Calm - N/A   Overcast
7:15 PM 62.6 °F 59.0 °F 88% 30.10 in 10.0 mi Calm Calm - N/A   Mostly Cloudy
7:35 PM 62.6 °F 59.0 °F 88% 30.11 in 10.0 mi Calm Calm - N/A   Overcast
7:55 PM 60.8 °F 59.0 °F 94% 30.11 in 10.0 mi SSW 4.6 mph - N/A   Overcast
8:15 PM 60.8 °F 60.8 °F 100% 30.12 in 10.0 mi Calm Calm - N/A   Overcast
8:35 PM 60.8 °F 60.8 °F 100% 30.12 in 10.0 mi South 3.5 mph - N/A   Mostly Cloudy
8:55 PM 59.0 °F 59.0 °F 100% 30.12 in 10.0 mi Calm Calm - N/A   Scattered Clouds
9:15 PM 60.8 °F 60.8 °F 100% 30.12 in 10.0 mi Calm Calm - N/A   Scattered Clouds
9:35 PM 60.8 °F 59.0 °F 94% 30.13 in 10.0 mi Calm Calm - N/A   Scattered Clouds
9:55 PM 60.8 °F 59.0 °F 94% 30.14 in 10.0 mi Calm Calm - N/A   Scattered Clouds
10:15 PM 59.0 °F 57.2 °F 94% 30.14 in 10.0 mi Calm Calm - N/A   Clear
10:35 PM 59.0 °F 59.0 °F 100% 30.14 in 10.0 mi Calm Calm - N/A   Clear
10:55 PM 59.0 °F 59.0 °F 100% 30.14 in 10.0 mi Calm Calm - N/A   Clear
11:15 PM 55.4 °F 55.4 °F 100% 30.14 in 10.0 mi Calm Calm - N/A   Clear
11:35 PM 57.2 °F 57.2 °F 100% 30.14 in 10.0 mi Calm Calm - N/A   Scattered Clouds
11:55 PM 60.8 °F 59.0 °F 94% 30.14 in 10.0 mi Calm Calm - N/A   Overcast